Weather History for Phuket, Thailand

Change the Weather History Date:

Friday, December 16, 2011

  Actual Average Record
Temperature  
Mean Temperature 80 °F -  
Max Temperature 86 °F 89 °F 95 °F (1996)
Min Temperature 74 °F 74 °F 71 °F (1996)
Cooling Degree Days 15    
Growing Degree Days 30 (Base 50)    
Moisture  
Dew Point 73 °F    
Average Humidity 82    
Maximum Humidity 94    
Minimum Humidity 70    
Precipitation  
Precipitation 0.28 in 0.07 in - ()
Sea Level Pressure  
Sea Level Pressure 29.84 in    
Wind  
Wind Speed 5 mph ()    
Max Wind Speed 14 mph    
Max Gust Speed -    
Visibility 4.2 miles    
Events Rain    
Averages and records for this station are not official NWS values.
T = Trace of Precipitation, MM = Missing Value Source: Averaged Metar Reports

Daily Weather History Graph

Daily Weather History Graph

Search for Another Location

Airport:

Trip Planner

Search our weather history database for the weather conditions in past years. The results will help you decide how hot, cold, wet, or windy it might be!

Date:

Astronomy

Dec. 16, 2011 Rise Set
Actual Time 6:32 AM ICT 6:11 PM ICT
Civil Twilight 6:09 AM ICT 6:34 PM ICT
Nautical Twilight 5:43 AM ICT 7:00 PM ICT
Astronomical Twilight 5:17 AM ICT 7:26 PM ICT
Moon 11:12 PM ICT (12/16) 10:53 AM ICT (12/16)
Length of Visible Light 12h 24m
Length of Day
11h 39m
Waning Gibbous, 70% of the Moon is Illuminated
Dec 16
Waning Gibbous
Dec 18
Last Quarter
Dec 25
New
Jan 1
First Quarter
Jan 9
Full

Hourly Weather History & Observations

Time (ICT) Temp. Heat Index Dew Point Humidity Pressure Visibility Wind Dir Wind Speed Gust Speed Precip Events Conditions
12:00 AM 78.8 °F - 73.4 °F 83% 29.86 in 4.3 mi ENE 4.6 mph - N/A   Mostly Cloudy
12:30 AM 77.0 °F - 73.4 °F 89% 29.83 in 4.3 mi ENE 3.5 mph - N/A   Mostly Cloudy
1:00 AM 79 °F - 75 °F 83% 29.83 in 5 mi East 4.6 mph - -   Mist
1:00 AM 78.8 °F - 73.4 °F 83% 29.86 in 4.3 mi ENE 4.6 mph - N/A   Mostly Cloudy
1:30 AM 77.0 °F - 73.4 °F 89% 29.86 in 4.3 mi Variable 3.5 mph - N/A   Mostly Cloudy
2:00 AM 77.0 °F - 73.4 °F 89% 29.83 in 4.3 mi Calm Calm - N/A   Mostly Cloudy
2:30 AM 78.8 °F - 71.6 °F 78% 29.83 in 4.3 mi East 8.1 mph - N/A   Mostly Cloudy
3:00 AM 78.8 °F - 73.4 °F 83% 29.83 in 4.3 mi ENE 4.6 mph - N/A   Mostly Cloudy
3:30 AM 78.8 °F - 73.4 °F 83% 29.83 in 4.3 mi ENE 4.6 mph - N/A   Mostly Cloudy
4:00 AM 77.0 °F - 73.4 °F 89% 29.83 in 3.1 mi Variable 2.3 mph - N/A Rain Light Rain
4:30 AM 75.2 °F - 73.4 °F 94% 29.83 in 3.1 mi NE 4.6 mph - N/A Rain Light Rain
5:00 AM 75.2 °F - 73.4 °F 94% 29.83 in 3.1 mi Calm Calm - N/A   Mostly Cloudy
5:30 AM 75.2 °F - 73.4 °F 94% 29.83 in 4.3 mi Calm Calm - N/A   Mostly Cloudy
6:00 AM 77.0 °F - 73.4 °F 89% 29.83 in 4.3 mi ENE 4.6 mph - N/A   Mostly Cloudy
6:30 AM 77.0 °F - 73.4 °F 89% 29.83 in 4.3 mi East 8.1 mph - N/A   Mostly Cloudy
7:00 AM 77 °F - 75 °F 90% 29.82 in 4 mi Calm Calm - -   Mist
7:00 AM 77.0 °F - 73.4 °F 89% 29.86 in 3.1 mi East 8.1 mph - N/A   Mostly Cloudy
7:30 AM 75.2 °F - 73.4 °F 94% 29.86 in 3.1 mi East 8.1 mph - N/A Rain Light Rain
8:00 AM 75.2 °F - 73.4 °F 94% 29.86 in 4.3 mi ENE 4.6 mph - N/A   Mostly Cloudy
8:30 AM 75.2 °F - 73.4 °F 94% 29.89 in 4.3 mi Variable 2.3 mph - N/A   Mostly Cloudy
9:00 AM 77.0 °F - 73.4 °F 89% 29.89 in 4.3 mi ENE 8.1 mph - N/A Rain Light Rain
9:30 AM 78.8 °F - 73.4 °F 83% 29.89 in 4.3 mi East 5.8 mph - N/A Rain Light Rain
10:00 AM 78.8 °F - 73.4 °F 83% 29.89 in 4.3 mi ENE 8.1 mph - N/A   Mostly Cloudy
10:30 AM 78.8 °F - 73.4 °F 83% 29.89 in 4.3 mi ENE 8.1 mph - N/A   Mostly Cloudy
11:00 AM 80.6 °F 85.4 °F 73.4 °F 79% 29.89 in 4.3 mi ENE 9.2 mph - N/A   Mostly Cloudy
11:30 AM 80.6 °F 85.4 °F 73.4 °F 79% 29.86 in 4.3 mi ENE 9.2 mph - N/A   Mostly Cloudy
12:00 PM 80.6 °F 85.4 °F 73.4 °F 79% 29.86 in 4.3 mi ENE 9.2 mph - N/A   Mostly Cloudy
12:30 PM 80.6 °F 85.4 °F 73.4 °F 79% 29.86 in 4.3 mi East 10.4 mph - N/A   Mostly Cloudy
1:00 PM 83 °F - 75 °F 70% 29.83 in 6 mi East 10.4 mph - -   Mist
1:00 PM 82.4 °F 88.2 °F 73.4 °F 74% 29.83 in 4.3 mi East 9.2 mph - N/A   Mostly Cloudy
1:30 PM 82.4 °F 87.2 °F 71.6 °F 70% 29.83 in 4.3 mi East 10.4 mph - N/A   Mostly Cloudy
2:00 PM 80.6 °F 85.4 °F 73.4 °F 79% 29.83 in 4.3 mi East 10.4 mph - N/A   Mostly Cloudy
2:30 PM 82.4 °F 87.2 °F 71.6 °F 70% 29.80 in 4.3 mi East 9.2 mph - N/A   Mostly Cloudy
3:00 PM 80.6 °F 85.4 °F 73.4 °F 79% 29.80 in 4.3 mi East 8.1 mph - N/A   Mostly Cloudy
3:30 PM 82.4 °F 88.2 °F 73.4 °F 74% 29.77 in 4.3 mi East 9.2 mph - N/A   Mostly Cloudy
4:00 PM 80.6 °F 85.4 °F 73.4 °F 79% 29.80 in 4.3 mi East 6.9 mph - N/A   Mostly Cloudy
4:30 PM 80.6 °F 85.4 °F 73.4 °F 79% 29.77 in 4.3 mi NE 6.9 mph - N/A   Mostly Cloudy
5:00 PM 80.6 °F 84.6 °F 71.6 °F 74% 29.77 in 4.3 mi NE 5.8 mph - N/A   Mostly Cloudy
5:30 PM 80.6 °F 84.6 °F 71.6 °F 74% 29.80 in 4.3 mi East 9.2 mph - N/A Rain Light Rain
6:00 PM 80.6 °F 85.4 °F 73.4 °F 79% 29.80 in 4.3 mi ENE 8.1 mph - N/A Rain Light Rain
6:30 PM 78.8 °F - 73.4 °F 83% 29.80 in 4.3 mi ENE 8.1 mph - N/A Rain Light Rain
7:00 PM 79 °F - 74 °F 81% 29.78 in 4 mi East 6.9 mph - - Rain Light Rain
7:00 PM 78.8 °F - 71.6 °F 78% 29.83 in 4.3 mi East 5.8 mph - N/A   Mostly Cloudy
7:30 PM 78.8 °F - 71.6 °F 78% 29.83 in 4.3 mi NE 3.5 mph - N/A Rain Light Rain
8:00 PM 78.8 °F - 71.6 °F 78% 29.83 in 4.3 mi ENE 5.8 mph - N/A   Mostly Cloudy
8:30 PM 78.8 °F - 71.6 °F 78% 29.86 in 4.3 mi East 6.9 mph - N/A   Mostly Cloudy
9:00 PM 78.8 °F - 71.6 °F 78% 29.86 in 4.3 mi ENE 13.8 mph - N/A   Mostly Cloudy
10:30 PM 78.8 °F - 71.6 °F 78% 29.89 in - ENE 8.1 mph - N/A   Mostly Cloudy
11:30 PM 78.8 °F - 71.6 °F 78% 29.86 in 4.3 mi East 8.1 mph - N/A   Mostly Cloudy